SCP
-0 0 0 -0 -0 -0 0 0 0 0 0 0 0 0 0 0 0 0 0 0 0 0 0 -0 -0 0 -0 0 0 0 0 0 0 0 -0 0 0 -0
0 0 0 -0 -0 -0 -0 0 0 0 0 0 0 0 0 0 0 0 0 0 -0 -0 -0 -0 -0 -0 -0 -0 0 0 0 0 -0 0 0 -0 -0 -0
0 0 0 -0 -0 0 0 0 0 0 0 0 0 0 0 0 0 0 0 0 0 -0 -0 -0 -0 -0 0 -0 0 0 0 -0 0 0 -0 -0 -0 -0
0 -0 0 0 0 0 0 0 0 0 0 0 0 0 0 0 0 0 0 0 0 -0 -0 -0 0 -0 0 0 0 0 0 -0 -0 -0 -0 -0 -0 0
0 0 0 0 0 0 0 0 0 0 0 0 0 0 0 0 0 0 0 0 0 -0 0 0 -0 -0 0 0 0 -0 -0 -0 -0 -0 -0 -0 0 0
-0 0 0 0 0 0 0 0 0 0 0 0 0 0 0 0 0 0 0 0 0 0 0 -0 -0 -0 0 -0 -0 -0 -0 -0 -0 -0 0 0 0 0
-0 -0 0 -0 0 0 0 0 0 0 0 0 0 0 0 0 0 0 0 0 0 0 0 0 0 0 0 0 -0 0 -0 -0 -0 0 0 0 0 0
0 0 0 0 0 0 0 0 0 0 0 0 0 0 0 0 0 0 0 0 0 0 0 0 0 0 -0 0 -0 -0 -0 -0 -0 0 0 0 0 0
0 0 0 0 0 0 0 0 0 0 0 0 0 0 0 0 0 0 0 0 0 0 0 0 0 0 0 0 0 -0 -0 -0 0 0 0 0 0 0
0 0 0 0 0 0 0 0 0 0 0 0 0 0 0 0 0 0 0 0 0 0 0 0 0 0 0 0 0 -0 -0 -0 0 0 0 0 0 0
0 0 0 0 0 0 0 0 0 0 0 0 0 0 0 0 0 0 0 0 0 0 0 0 0 0 0 -0 -0 -0 -0 0 0 0 0 0 0 0
0 0 -0 -0 0 0 0 0 0 0 0 0 0 0 0 0 0 0 0 0 0 0 0 0 0 0 -0 0 0 0 0 0 0 0 0 0 0 0
0 -0 0 0 0 0 0 0 0 0 0 0 0 0 0 0 0 0 0 0 0 0 0 0 -0 0 -0 -0 0 0 0 0 0 0 0 0 0 0
0 -0 0 0 0 0 0 0 -0 0 0 0 0 0 0 0 0 0 0 0 0 0 0 -0 0 -0 0 0 0 0 0 0 0 0 0 0 0 0
-0 -0 -0 0 0 0 -0 -0 0 0 0 -0 0 0 0 0 0 0 0 0 0 0 0 -0 0 -0 0 0 0 0 0 0 0 0 0 0 0 0
-0 0 0 0 0 -0 -0 -0 0 0 0 0 0 0 0 0 0 0 0 -0 -0 -0 0 0 -0 0 0 0 0 0 0 0 0 0 0 0 0 0
0 0 0 0 0 0 -0 0 -0 -0 0 0 -0 -0 0 0 0 0 -0 -0 -0 0 -0 -0 0 0 0 0 0 0 0 0 0 0 0 0 0 0
0 0 0 -0 -0 0 -0 -0 -0 -0 -0 -0 -0 -0 -0 -0 -0 -0 -0 0 0 -0 -0 -0 0 0 0 0 0 0 0 0 0 0 0 0 0 0
0 0 0 0 -0 -0 -0 -0 -0 -0 -0 -0 -0 -0 -0 -0 -0 0 0 -0 -0 -0 -0 0 0 0 0 0 0 0 0 0 0 0 0 0 0 0
0 0 0 0 0 -0 -0 -0 -0 -0 -0 -0 -0 -0 -0 -0 -0 -0 -0 -0 -0 -0 -0 0 0 0 0 0 0 0 0 0 0 0 0 0 0 0
-0 0 0 0 0 0 0 -0 -0 -0 -0 -0 -0 -0 -0 -0 -0 -0 -0 0 0 0 0 0 0 0 0 0 0 0 0 0 0 0 0 0 0 0
0 0 -0 -0 0 0 0 -0 -0 -0 0 0 0 0 0 -0 -0 0 0 0 0 0 0 0 0 0 0 0 0 0 0 0 0 0 0 0 0 0
-0 -0 -0 -0 -0 -0 -0 -0 -0 0 0 0 0 -0 0 0 0 0 0 0 0 0 0 0 0 0 0 0 0 0 0 0 0 0 0 0 0 0
Wind_Speed_500mb
17 17 20 23 30 32 31 26 39 32 31 29 24 24 25 32 32 36 35 41 39 50 48 72 70 52 58 54 47 35 32 28 22 19 17 13 12 9
13 15 20 23 28 30 28 24 33 40 33 36 28 26 25 31 34 37 36 36 38 59 49 56 54 56 60 51 39 30 34 25 21 17 13 9 9 8
12 11 15 21 26 27 28 29 37 37 30 30 24 17 24 35 36 33 42 44 56 46 43 53 69 67 55 44 38 32 30 23 15 12 10 8 6 9
12 19 17 18 21 25 31 33 36 35 29 27 31 25 36 30 39 45 51 53 50 41 46 63 47 49 50 42 38 32 25 15 10 9 6 8 10 8
22 15 17 19 21 22 20 25 32 34 30 34 35 35 45 58 54 55 65 67 50 60 53 56 51 46 41 40 33 28 24 17 11 9 9 8 8 12
20 13 16 18 20 27 26 29 37 36 39 45 46 59 53 51 50 68 80 64 68 63 62 59 56 47 41 35 26 22 21 18 11 8 6 9 11 12
14 12 18 22 16 17 18 29 41 50 56 55 60 71 73 72 65 76 78 81 72 65 60 48 42 38 41 37 30 22 15 10 9 9 10 11 10 7
14 14 15 18 22 19 28 42 48 56 61 59 63 66 76 75 82 93 93 85 79 59 55 52 41 38 33 26 19 14 12 13 11 9 10 9 8 8
13 12 10 7 15 29 38 33 33 41 52 56 61 74 88 86 94 90 79 71 71 64 55 50 42 31 26 22 20 19 17 12 10 9 10 11 11 11
13 12 14 19 21 28 26 31 43 51 55 53 58 68 71 90 82 80 75 68 58 58 47 46 39 32 26 23 21 19 15 11 10 11 12 13 15 16
20 21 27 31 25 28 42 51 60 63 52 52 60 62 74 83 71 69 67 63 64 55 46 30 35 31 26 23 21 20 16 13 13 15 16 18 20 20
25 28 33 41 35 32 46 57 64 61 64 65 63 78 74 62 53 52 56 58 57 47 42 27 34 27 21 24 25 23 19 19 21 20 22 23 23 24
31 35 39 43 43 43 42 44 53 61 61 70 70 66 59 50 44 43 46 40 44 22 38 26 29 26 15 10 22 26 25 24 23 24 26 26 28 25
36 40 41 46 43 32 40 45 45 52 59 65 64 56 48 44 41 37 33 32 18 14 25 16 11 20 18 16 12 13 23 26 27 27 28 31 30 27
38 39 42 45 41 27 36 35 43 53 60 60 55 49 45 44 39 38 37 36 34 18 23 20 15 11 12 19 23 22 22 24 28 31 34 35 32 30
38 44 42 44 41 35 33 35 40 46 50 54 53 52 46 43 44 44 44 40 36 31 28 23 19 20 25 28 32 33 30 33 36 36 37 42 40 36
45 45 42 41 44 45 40 40 38 43 46 46 49 51 46 41 40 39 37 36 35 32 28 24 23 28 34 38 43 42 41 43 45 46 47 47 44 39
49 48 48 46 49 49 45 43 44 45 46 39 44 45 44 39 35 35 36 36 34 32 31 30 32 36 38 43 44 45 47 49 47 48 49 48 44 38
39 45 45 46 51 47 47 49 50 53 48 47 44 40 41 43 44 43 40 39 40 39 38 39 39 41 46 52 51 50 50 47 49 50 49 51 47 37
34 31 39 37 40 49 52 48 46 49 51 53 53 47 44 43 46 48 47 46 46 46 45 45 50 54 54 53 54 53 48 51 51 51 51 52 47 39
38 35 31 32 34 35 45 54 52 51 50 53 51 48 46 47 49 50 49 47 47 49 51 51 49 50 55 57 59 55 54 57 58 56 52 51 48 46
37 35 36 38 40 41 40 45 53 57 53 52 51 49 47 48 49 49 49 48 48 50 51 52 50 52 56 60 62 63 64 66 67 56 55 50 52 43
46 43 41 42 43 49 52 52 53 55 56 55 54 52 51 53 52 56 59 58 57 60 61 62 65 68 68 67 68 71 72 73 68 61 58 61 58 51
Wind_Direction_500mb
242 239 231 220 214 214 221 223 219 187 197 208 214 217 215 208 201 198 197 197 202 197 199 188 184 173 176 173 168 166 163 146 158 148 135 133 163 202
234 243 228 218 220 218 216 223 204 211 201 212 207 204 201 194 197 201 199 194 178 182 175 174 176 165 161 167 164 164 148 158 159 144 151 178 216 254
232 236 222 212 214 214 216 206 204 214 218 187 184 190 198 188 190 187 184 181 182 184 186 191 174 161 163 176 173 154 153 160 150 173 199 220 277 299
265 239 224 216 214 216 216 204 206 201 201 174 157 167 176 176 169 172 173 181 172 171 183 174 148 162 167 166 151 158 158 172 184 200 228 266 290 317
240 231 214 213 210 201 179 180 196 206 209 181 167 179 173 174 164 163 165 162 166 172 165 148 162 156 147 151 156 174 191 199 214 231 274 307 316 308
211 211 204 199 197 195 199 207 206 195 176 162 160 163 172 161 166 161 150 160 146 148 148 147 152 157 160 165 179 168 171 193 219 267 265 283 282 284
195 196 194 183 185 191 195 182 177 164 163 159 157 154 157 158 164 156 146 143 147 152 152 147 152 162 170 161 163 168 178 207 212 231 255 270 283 281
137 163 186 199 196 185 174 163 161 158 159 157 157 158 156 161 162 150 145 148 145 160 160 154 154 154 160 163 166 179 190 195 225 255 269 276 273 270
129 133 143 157 182 171 155 159 162 174 171 174 167 167 160 166 154 150 151 159 160 162 164 154 161 168 169 175 180 182 192 215 241 262 266 263 263 271
123 119 120 134 159 150 156 166 167 171 172 172 172 170 168 156 155 152 157 160 155 157 169 162 165 171 179 186 187 193 211 234 258 271 268 266 274 277
115 106 112 125 147 145 150 153 154 157 168 177 176 173 163 158 162 157 160 164 159 165 169 177 175 177 184 194 201 212 228 254 272 269 266 266 268 276
120 119 123 129 131 126 140 148 152 156 166 162 158 155 157 161 162 167 163 166 164 166 174 181 188 181 195 209 216 226 240 253 259 261 261 266 271 279
120 135 135 139 137 132 122 129 151 152 150 155 158 161 163 165 169 174 174 174 164 167 176 175 188 193 200 218 235 239 245 254 265 268 268 272 275 275
132 140 142 149 151 139 140 136 139 148 155 158 161 163 165 166 163 167 173 168 145 147 171 167 185 216 231 248 279 272 266 268 274 274 268 268 270 271
144 140 146 147 159 151 152 149 151 161 161 163 167 167 165 162 166 166 166 177 196 168 162 192 211 234 252 265 274 290 292 289 278 274 272 271 272 270
150 152 152 158 166 164 158 171 169 165 164 164 166 164 165 172 171 171 172 179 191 195 201 210 230 251 260 267 272 278 288 284 293 291 290 266 264 267
162 158 164 167 160 170 172 176 176 176 175 171 171 172 173 171 176 182 188 194 203 206 213 232 255 271 273 272 274 280 285 287 291 288 280 275 265 266
172 171 172 176 178 179 177 185 184 179 179 179 185 189 192 192 192 197 203 213 221 226 237 253 267 274 280 279 279 284 286 289 293 288 282 273 261 265
181 179 180 183 188 196 194 198 200 199 201 204 197 197 203 211 215 219 223 230 237 243 250 260 269 276 281 284 290 290 288 296 295 291 286 271 262 254
185 186 187 191 197 198 198 193 192 195 200 200 204 207 211 217 221 226 234 242 249 253 256 262 269 274 280 292 292 292 295 292 291 287 279 267 256 250
194 200 204 205 206 203 203 200 199 198 198 202 208 214 220 225 231 237 243 249 254 259 264 268 280 286 282 282 281 290 295 292 287 283 276 264 247 240
216 216 214 215 212 208 203 202 205 206 209 211 213 218 223 230 237 243 246 251 256 264 272 279 285 285 282 279 282 285 287 286 282 275 265 251 246 245
223 224 223 220 218 216 215 213 213 213 214 217 222 229 237 245 250 256 260 262 264 269 273 277 278 278 279 278 280 279 278 278 276 273 259 242 240 246
Wind_Speed_850mb
17 17 20 23 30 32 31 26 39 32 31 29 24 24 25 32 32 36 35 41 39 50 48 72 70 52 58 54 47 35 32 28 22 19 17 13 12 9
13 15 20 23 28 30 28 24 33 40 33 36 28 26 25 31 34 37 36 36 38 59 49 56 54 56 60 51 39 30 34 25 21 17 13 9 9 8
12 11 15 21 26 27 28 29 37 37 30 30 24 17 24 35 36 33 42 44 56 46 43 53 69 67 55 44 38 32 30 23 15 12 10 8 6 9
12 19 17 18 21 25 31 33 36 35 29 27 31 25 36 30 39 45 51 53 50 41 46 63 47 49 50 42 38 32 25 15 10 9 6 8 10 8
22 15 17 19 21 22 20 25 32 34 30 34 35 35 45 58 54 55 65 67 50 60 53 56 51 46 41 40 33 28 24 17 11 9 9 8 8 12
20 13 16 18 20 27 26 29 37 36 39 45 46 59 53 51 50 68 80 64 68 63 62 59 56 47 41 35 26 22 21 18 11 8 6 9 11 12
14 12 18 22 16 17 18 29 41 50 56 55 60 71 73 72 65 76 78 81 72 65 60 48 42 38 41 37 30 22 15 10 9 9 10 11 10 7
14 14 15 18 22 19 28 42 48 56 61 59 63 66 76 75 82 93 93 85 79 59 55 52 41 38 33 26 19 14 12 13 11 9 10 9 8 8
13 12 10 7 15 29 38 33 33 41 52 56 61 74 88 86 94 90 79 71 71 64 55 50 42 31 26 22 20 19 17 12 10 9 10 11 11 11
13 12 14 19 21 28 26 31 43 51 55 53 58 68 71 90 82 80 75 68 58 58 47 46 39 32 26 23 21 19 15 11 10 11 12 13 15 16
20 21 27 31 25 28 42 51 60 63 52 52 60 62 74 83 71 69 67 63 64 55 46 30 35 31 26 23 21 20 16 13 13 15 16 18 20 20
25 28 33 41 35 32 46 57 64 61 64 65 63 78 74 62 53 52 56 58 57 47 42 27 34 27 21 24 25 23 19 19 21 20 22 23 23 24
31 35 39 43 43 43 42 44 53 61 61 70 70 66 59 50 44 43 46 40 44 22 38 26 29 26 15 10 22 26 25 24 23 24 26 26 28 25
36 40 41 46 43 32 40 45 45 52 59 65 64 56 48 44 41 37 33 32 18 14 25 16 11 20 18 16 12 13 23 26 27 27 28 31 30 27
38 39 42 45 41 27 36 35 43 53 60 60 55 49 45 44 39 38 37 36 34 18 23 20 15 11 12 19 23 22 22 24 28 31 34 35 32 30
38 44 42 44 41 35 33 35 40 46 50 54 53 52 46 43 44 44 44 40 36 31 28 23 19 20 25 28 32 33 30 33 36 36 37 42 40 36
45 45 42 41 44 45 40 40 38 43 46 46 49 51 46 41 40 39 37 36 35 32 28 24 23 28 34 38 43 42 41 43 45 46 47 47 44 39
49 48 48 46 49 49 45 43 44 45 46 39 44 45 44 39 35 35 36 36 34 32 31 30 32 36 38 43 44 45 47 49 47 48 49 48 44 38
39 45 45 46 51 47 47 49 50 53 48 47 44 40 41 43 44 43 40 39 40 39 38 39 39 41 46 52 51 50 50 47 49 50 49 51 47 37
34 31 39 37 40 49 52 48 46 49 51 53 53 47 44 43 46 48 47 46 46 46 45 45 50 54 54 53 54 53 48 51 51 51 51 52 47 39
38 35 31 32 34 35 45 54 52 51 50 53 51 48 46 47 49 50 49 47 47 49 51 51 49 50 55 57 59 55 54 57 58 56 52 51 48 46
37 35 36 38 40 41 40 45 53 57 53 52 51 49 47 48 49 49 49 48 48 50 51 52 50 52 56 60 62 63 64 66 67 56 55 50 52 43
46 43 41 42 43 49 52 52 53 55 56 55 54 52 51 53 52 56 59 58 57 60 61 62 65 68 68 67 68 71 72 73 68 61 58 61 58 51
Wind_Direction_850mb
242 239 231 220 214 214 221 223 219 187 197 208 214 217 215 208 201 198 197 197 202 197 199 188 184 173 176 173 168 166 163 146 158 148 135 133 163 202
234 243 228 218 220 218 216 223 204 211 201 212 207 204 201 194 197 201 199 194 178 182 175 174 176 165 161 167 164 164 148 158 159 144 151 178 216 254
232 236 222 212 214 214 216 206 204 214 218 187 184 190 198 188 190 187 184 181 182 184 186 191 174 161 163 176 173 154 153 160 150 173 199 220 277 299
265 239 224 216 214 216 216 204 206 201 201 174 157 167 176 176 169 172 173 181 172 171 183 174 148 162 167 166 151 158 158 172 184 200 228 266 290 317
240 231 214 213 210 201 179 180 196 206 209 181 167 179 173 174 164 163 165 162 166 172 165 148 162 156 147 151 156 174 191 199 214 231 274 307 316 308
211 211 204 199 197 195 199 207 206 195 176 162 160 163 172 161 166 161 150 160 146 148 148 147 152 157 160 165 179 168 171 193 219 267 265 283 282 284
195 196 194 183 185 191 195 182 177 164 163 159 157 154 157 158 164 156 146 143 147 152 152 147 152 162 170 161 163 168 178 207 212 231 255 270 283 281
137 163 186 199 196 185 174 163 161 158 159 157 157 158 156 161 162 150 145 148 145 160 160 154 154 154 160 163 166 179 190 195 225 255 269 276 273 270
129 133 143 157 182 171 155 159 162 174 171 174 167 167 160 166 154 150 151 159 160 162 164 154 161 168 169 175 180 182 192 215 241 262 266 263 263 271
123 119 120 134 159 150 156 166 167 171 172 172 172 170 168 156 155 152 157 160 155 157 169 162 165 171 179 186 187 193 211 234 258 271 268 266 274 277
115 106 112 125 147 145 150 153 154 157 168 177 176 173 163 158 162 157 160 164 159 165 169 177 175 177 184 194 201 212 228 254 272 269 266 266 268 276
120 119 123 129 131 126 140 148 152 156 166 162 158 155 157 161 162 167 163 166 164 166 174 181 188 181 195 209 216 226 240 253 259 261 261 266 271 279
120 135 135 139 137 132 122 129 151 152 150 155 158 161 163 165 169 174 174 174 164 167 176 175 188 193 200 218 235 239 245 254 265 268 268 272 275 275
132 140 142 149 151 139 140 136 139 148 155 158 161 163 165 166 163 167 173 168 145 147 171 167 185 216 231 248 279 272 266 268 274 274 268 268 270 271
144 140 146 147 159 151 152 149 151 161 161 163 167 167 165 162 166 166 166 177 196 168 162 192 211 234 252 265 274 290 292 289 278 274 272 271 272 270
150 152 152 158 166 164 158 171 169 165 164 164 166 164 165 172 171 171 172 179 191 195 201 210 230 251 260 267 272 278 288 284 293 291 290 266 264 267
162 158 164 167 160 170 172 176 176 176 175 171 171 172 173 171 176 182 188 194 203 206 213 232 255 271 273 272 274 280 285 287 291 288 280 275 265 266
172 171 172 176 178 179 177 185 184 179 179 179 185 189 192 192 192 197 203 213 221 226 237 253 267 274 280 279 279 284 286 289 293 288 282 273 261 265
181 179 180 183 188 196 194 198 200 199 201 204 197 197 203 211 215 219 223 230 237 243 250 260 269 276 281 284 290 290 288 296 295 291 286 271 262 254
185 186 187 191 197 198 198 193 192 195 200 200 204 207 211 217 221 226 234 242 249 253 256 262 269 274 280 292 292 292 295 292 291 287 279 267 256 250
194 200 204 205 206 203 203 200 199 198 198 202 208 214 220 225 231 237 243 249 254 259 264 268 280 286 282 282 281 290 295 292 287 283 276 264 247 240
216 216 214 215 212 208 203 202 205 206 209 211 213 218 223 230 237 243 246 251 256 264 272 279 285 285 282 279 282 285 287 286 282 275 265 251 246 245
223 224 223 220 218 216 215 213 213 213 214 217 222 229 237 245 250 256 260 262 264 269 273 277 278 278 279 278 280 279 278 278 276 273 259 242 240 246